Voltar ao catálogo

CAPELLA-17

ACADIA

AtivoCiênciaSSO
NORAD 64583·PAYLOAD·🇺🇸 United States

Lançado Jun 23, 2025 de Vandenberg Space Force Base

Loading…

Próximas Passagens (próximas 24 horas)

TLE

AtualizadoSource: Space-Track

Época: Sep 13, 2026, 06:34 UTC

1 64583U 25135BH  26256.27392435  .00004921  00000-0  48824-3 0  9993
2 64583  97.7756   8.6486 0006311  69.7493 290.4403 14.92199544 66989

Acompanhe CAPELLA-17 em tempo real com AllMySat

Download on the App Store